Regional Weather Roundup
Issued by NWS

Home | Current Version | Previous Version | Graphics & Text | Print | Product List | Glossary On
Versions: 1 2 3 4 5 6 7 8 9 10 11 12 13 14 15 16 17 18 19 20 21 22 23 24 25 26 27 28 29 30 31 32 33 34 35 36 37 38 39 40 41 42 43 44 45 46 47 48 49 50
000
ASUS45 KBOU 050507
RWRCO

WEATHER ROUNDUP FOR COLORADO
NATIONAL WEATHER SERVICE DENVER/BOULDER CO
1000 PM MST WED MAR 04 2015

NOTE: "FAIR" INDICATES FEW OR NO CLOUDS BELOW 12000 FEET WITH NO
SIGNIFICANT WEATHER AND/OR OBSTRUCTIONS TO VISIBILITY.

COZ001>005-013-030-031-050600-
...NORTHWEST COLORADO...

CITY           SKY/WX    TMP DP  RH WIND       PRES   REMARKS
CRAIG          PTCLDY     8   2  76 CALM      30.27R
HAYDEN         PTCLDY    10   1  67 E13       30.25R WCI  -5
MEEKER         PTCLDY    15   6  67 E9        30.27R WCI   3
MOUNT WERNER   NOT AVBL
STEAMBOAT SPGS CLOUDY     8  -2  64 CALM      30.25R
WALDEN         PTCLDY    -6 -13  71 SE10      30.16R WCI -23
$$

COZ006>008-011-050600-
...WEST CENTRAL VALLEYS...

CITY           SKY/WX    TMP DP  RH WIND       PRES   REMARKS
GRAND JUNCTION CLEAR     31   8  38 VRB3      30.27R
MONTROSE       CLEAR     26  17  68 SE10      30.29R WCI  16
EAGLE          CLEAR     12   5  73 CALM      30.32R
RIFLE          PTCLDY    22  11  62 SE10      30.31R WCI  11
DELTA          CLEAR     30  15  54 CALM      30.30R
NUCLA          CLEAR     27  18  69 E7        30.30R WCI  19
$$

COZ017>023-064>068-050600-
...SOUTHWEST COLORADO...

CITY           SKY/WX    TMP DP  RH WIND       PRES   REMARKS
DURANGO        PTCLDY    26   4  38 W3        30.18R
CORTEZ         CLEAR     26  15  63 CALM      30.25R
PAGOSA SPRINGS PTCLDY    12   0  59 CALM      30.17R
TELLURIDE      PTCLDY    13   3  63 SE6       30.20R WCI   4
WOLF CREEK PAS   N/A      0  -2  92 NE18      30.09R WCI -22
$$

COZ009-010-012-014-032>034-037-058>063-050600-
...CENTRAL COLORADO...

CITY           SKY/WX    TMP DP  RH WIND       PRES   REMARKS
ASPEN          MOCLDY     6  -2  69 S9        30.24R WCI  -8
BUENA VISTA    PTCLDY    14  -1  51 NW20      30.16R WCI  -4
COPPER MTN     NOT AVBL
BERTHOUD PASS  FAIR      -9 -17  70 NW25G35   29.97R WCI -37
COTTONWOOD PAS PTCLDY    12  -8  40 W13G25    30.10R WCI  -3
GUNNISON       MOCLDY    10  -2  56 CALM      30.25R
KREMMLING      PTCLDY     5   0  78 E5        30.25R WCI  -4
LEADVILLE      PTCLDY    -5 -10  79 NE10      30.12R WCI -23
SALIDA         PTCLDY    14   9  80 CALM      30.26R
SUNLIGHT       PTCLDY     7   3  85 W3          N/A
WILKERSON PASS PTCLDY     0 -15  50 NW16G33   30.01S WCI -21
$$

COZ069>075-050600-
...SAN LUIS VALLEY/SANGRE DE CRISTO MOUNTAINS...

CITY           SKY/WX    TMP DP  RH WIND       PRES   REMARKS
ALAMOSA        CLEAR     20   7  57 NW8       30.17R WCI  10
LA VETA PASS   PTCLDY     5   1  85 MISG      30.08R
SAGUACHE       PTCLDY    19   1  45 N14       30.17R WCI   6
$$

COZ035-036-038>040-050600-
...NORTHERN COLORADO FRONT RANGE...

CITY           SKY/WX    TMP DP  RH WIND       PRES   REMARKS
DENVER INTL AP PTCLDY    12   4  70 S16       30.20S WCI  -5
DMNS CITY PARK   N/A     13   6  73 S6        30.21S WCI   4
AURORA         PTCLDY     7   2  77 S13       30.20S WCI  -9
FRONT RANGE AP NOT AVBL
ERIE MUNI ARPT CLEAR      8   6  91 CALM      30.22S
BOULDER MUN AP CLEAR     12   9  85 CALM      30.20S
CENTENNIAL     CLEAR      9   4  80 S12       30.19S WCI  -6
BROOMFIELD     PTCLDY    10   5  79 SW7       30.19S WCI   0
FORT COLLINS   CLEAR      7   1  78 SW6       30.22S WCI  -3
LONGMONT       CLEAR      6   1  80 W5        30.25R WCI  -3
$$

COZ041-046-047-076>085-087-088-050600-
...PIKES PEAK/PALMER DIVIDE AND SOUTHERN FOOTHILLS...

CITY           SKY/WX    TMP DP  RH WIND       PRES   REMARKS
COLO. SPRINGS  LGT SNOW  10   7  87 S5        30.24R FOG     WCI   2
A. F. ACADEMY  FLURRIES   9   5  85 SE5       30.20S WCI   0
ELLICOTT       NOT AVBL
FALCON         LGT SNOW   8   6  92 SW10      30.20R WCI  -7
FORT CARSON    LGT SNOW   7   4  88 W3        30.24S FOG
LIMON          CLEAR     -8 -12  83 N5        30.25S WCI -19
MONUMENT HILL  PTCLDY     3   1  92 SW14      30.15R WCI -15
TRINIDAD       CLOUDY     9   6  88 NW5       30.27R WCI   1
$$

COZ042>045-048>051-090-091-050600-
...NORTHEAST COLORADO...

CITY           SKY/WX    TMP DP  RH WIND       PRES   REMARKS
GREELEY ARPT   CLEAR     10   0  61 CALM      30.23R
AKRON          CLEAR     13   7  77 SW13      30.24R WCI  -2
BURLINGTON     CLEAR     15   8  73 W10       30.29R WCI   2
WRAY           CLEAR     15  11  83 SW3       30.30S
STERLING       CLEAR     14   9  79 W6        30.27R WCI   5
HOLYOKE        NOT AVBL
FORT MORGAN    CLEAR     12   7  79 SW6       30.26S WCI   3
$$

COZ086-089-092>099-050600-
...SOUTHEAST COLORADO...

CITY           SKY/WX    TMP DP  RH WIND       PRES   REMARKS
PUEBLO         PTCLDY     9   6  88 CALM      30.32S
LA JUNTA       CLEAR     16  10  77 SW9       30.34R WCI   4
LAMAR          CLEAR     17  13  84 SW7       30.35R WCI   8
SPRINGFIELD      N/A      8   5  87 NW5       30.32R WCI   0
$$


USA.gov is the U.S. government's official web portal to all federal, state and local government web resources and services.